TimeEST,TemperatureF,Dew PointF,Humidity,Sea Level PressureIn,VisibilityMPH,Wind Direction,Wind SpeedMPH,Gust SpeedMPH,PrecipitationIn,Events,Conditions,WindDirDegrees,DateUTC
12:54 AM,-9999,-9999,N/A,30.05,10.0,SE,6.9,-,N/A,,Overcast,130,2013-02-08 05:54:00
1:54 AM,-9999,-9999,N/A,30.03,10.0,SSE,5.8,-,N/A,,Overcast,150,2013-02-08 06:54:00
2:54 AM,-9999,-9999,N/A,30.01,10.0,SE,5.8,-,N/A,,Overcast,140,2013-02-08 07:54:00
3:45 AM,-9999,-9999,N/A,29.98,10.0,SE,5.8,-,N/A,,Overcast,130,2013-02-08 08:45:00
3:54 AM,-9999,-9999,N/A,29.98,10.0,ESE,6.9,-,N/A,,Overcast,120,2013-02-08 08:54:00
4:54 AM,-9999,-9999,N/A,29.97,10.0,Variable,5.8,-,N/A,,Overcast,0,2013-02-08 09:54:00
5:21 AM,-9999,-9999,N/A,29.97,10.0,ESE,3.5,-,N/A,,Overcast,110,2013-02-08 10:21:00
5:54 AM,-9999,-9999,N/A,29.95,9.0,ESE,4.6,-,N/A,,Overcast,120,2013-02-08 10:54:00
7:54 AM,-9999,-9999,N/A,29.90,10.0,Variable,4.6,-,N/A,,Overcast,0,2013-02-08 12:54:00
8:54 AM,-9999,-9999,N/A,29.89,10.0,East,4.6,-,N/A,,Overcast,90,2013-02-08 13:54:00
9:54 AM,-9999,-9999,N/A,29.85,10.0,East,4.6,-,N/A,,Overcast,90,2013-02-08 14:54:00
10:54 AM,33.1,30.0,89,29.82,5.0,Variable,6.9,-,0.00,Snow,Light Snow,0,2013-02-08 15:54:00
11:54 AM,33.1,30.0,89,29.80,6.0,Calm,Calm,-,0.01,Rain,Light Rain,0,2013-02-08 16:54:00
12:06 PM,33.8,30.2,87,29.79,1.8,South,3.5,-,0.00,Snow,Light Snow,180,2013-02-08 17:06:00
12:24 PM,33.8,30.2,87,29.79,2.5,South,3.5,-,0.00,Snow,Light Snow,170,2013-02-08 17:24:00
12:43 PM,32.0,30.2,93,29.78,1.0,South,5.8,-,0.01,Snow,Light Snow,180,2013-02-08 17:43:00
12:52 PM,32.0,30.2,93,29.77,0.8,Calm,Calm,-,0.02,Snow,Light Snow,0,2013-02-08 17:52:00
12:54 PM,33.1,32.0,96,29.77,0.8,Calm,Calm,-,0.02,Snow,Light Snow,0,2013-02-08 17:54:00
1:46 PM,32.0,32.0,100,29.76,0.5,Calm,Calm,-,0.04,Fog-Snow,Snow,0,2013-02-08 18:46:00
1:54 PM,32.0,32.0,100,29.76,0.5,Calm,Calm,-,0.05,Fog-Snow,Snow,0,2013-02-08 18:54:00
2:23 PM,32.0,30.2,93,29.76,0.8,Calm,Calm,-,0.02,Snow,Light Snow,0,2013-02-08 19:23:00
2:32 PM,32.0,30.2,93,29.75,1.8,Calm,Calm,-,0.02,Snow,Light Snow,0,2013-02-08 19:32:00
2:54 PM,32.0,32.0,100,29.75,1.8,Calm,Calm,-,0.02,Snow,Light Snow,0,2013-02-08 19:54:00
3:01 PM,33.8,32.0,93,29.74,3.0,Calm,Calm,-,0.00,,Overcast,0,2013-02-08 20:01:00
3:15 PM,33.8,32.0,93,29.74,1.8,Calm,Calm,-,0.00,Snow,Light Snow,0,2013-02-08 20:15:00
3:43 PM,32.0,30.2,93,29.75,0.8,SW,5.8,-,0.01,Snow,Light Snow,230,2013-02-08 20:43:00
3:54 PM,32.0,32.0,100,29.75,0.5,SW,6.9,-,0.02,Fog-Snow,Snow,230,2013-02-08 20:54:00
4:00 PM,32.0,30.2,93,29.76,1.0,West,12.7,21.9,0.00,Snow,Light Snow,260,2013-02-08 21:00:00
4:05 PM,33.8,30.2,87,29.76,3.0,WSW,15.0,23.0,0.00,Snow,Light Snow,250,2013-02-08 21:05:00
4:12 PM,33.8,30.2,87,29.76,3.0,WSW,13.8,23.0,0.00,,Overcast,250,2013-02-08 21:12:00
4:54 PM,32.0,28.9,88,29.77,4.0,West,9.2,-,0.00,Snow,Light Snow,270,2013-02-08 21:54:00
5:08 PM,30.2,28.4,93,29.77,2.5,West,16.1,21.9,0.00,Snow,Light Snow,260,2013-02-08 22:08:00
5:18 PM,30.2,26.6,86,29.78,2.5,West,15.0,20.7,0.00,Snow,Light Snow,260,2013-02-08 22:18:00
5:52 PM,28.4,26.6,93,29.80,4.0,West,13.8,20.7,0.00,Snow,Light Snow,260,2013-02-08 22:52:00
5:54 PM,28.9,25.0,85,29.80,4.0,West,12.7,20.7,0.00,Snow,Light Snow,270,2013-02-08 22:54:00
6:40 PM,26.6,21.2,80,29.84,8.0,West,12.7,24.2,0.00,Snow,Light Snow,280,2013-02-08 23:40:00
6:54 PM,26.1,21.0,81,29.84,8.0,WNW,16.1,32.2,0.00,Snow,Light Snow,290,2013-02-08 23:54:00
7:25 PM,24.8,19.4,80,29.86,10.0,WNW,17.3,26.5,0.00,,Overcast,290,2013-02-09 00:25:00
7:54 PM,24.1,17.1,75,29.88,8.0,WNW,16.1,29.9,0.00,,Overcast,290,2013-02-09 00:54:00
8:54 PM,21.9,16.0,78,29.91,9.0,NW,13.8,25.3,0.00,Snow,Light Snow,310,2013-02-09 01:54:00
9:54 PM,19.9,12.9,74,29.96,8.0,WNW,12.7,23.0,0.00,Snow,Light Snow,300,2013-02-09 02:54:00
10:54 PM,19.9,12.9,74,30.04,8.0,NW,5.8,-,0.00,Snow,Light Snow,310,2013-02-09 03:54:00
11:54 PM,19.0,12.0,74,30.06,6.0,WNW,15.0,21.9,0.00,Snow,Light Snow,300,2013-02-09 04:54:00